Year,Month,Day,Hour,Minute,Value (Times are PST for temperature in C)
2012,08,03,00,00,13.60
2012,08,03,00,01,13.60
2012,08,03,00,02,13.70
2012,08,03,00,03,13.70
2012,08,03,00,04,13.70
2012,08,03,00,05,13.70
2012,08,03,00,06,13.70
2012,08,03,00,07,13.70
2012,08,03,00,08,13.70
2012,08,03,00,09,13.70
2012,08,03,00,10,13.70
2012,08,03,00,11,13.70
2012,08,03,00,12,13.60
2012,08,03,00,13,13.60
2012,08,03,00,14,13.60
2012,08,03,00,15,13.60
2012,08,03,00,16,13.60
2012,08,03,00,17,13.60
2012,08,03,00,18,13.50
2012,08,03,00,19,13.50
2012,08,03,00,20,13.50
2012,08,03,00,21,13.50
2012,08,03,00,22,13.40
2012,08,03,00,23,13.40
2012,08,03,00,24,13.40
2012,08,03,00,25,13.30
2012,08,03,00,26,13.30
2012,08,03,00,27,13.30
2012,08,03,00,28,13.30
2012,08,03,00,29,13.30
2012,08,03,00,30,13.30
2012,08,03,00,31,13.30
2012,08,03,00,32,13.30
2012,08,03,00,33,13.30
2012,08,03,00,34,13.30
2012,08,03,00,35,13.30
2012,08,03,00,36,13.30
2012,08,03,00,37,13.30
2012,08,03,00,38,13.30
2012,08,03,00,39,13.30
2012,08,03,00,40,13.30
2012,08,03,00,41,13.30
2012,08,03,00,42,13.30
2012,08,03,00,43,13.30
2012,08,03,00,44,13.30
2012,08,03,00,45,13.30
2012,08,03,00,46,13.30
2012,08,03,00,47,13.30
2012,08,03,00,48,13.30
2012,08,03,00,49,13.20
2012,08,03,00,50,13.20
2012,08,03,00,51,13.20
2012,08,03,00,52,13.20
2012,08,03,00,53,13.20
2012,08,03,00,54,13.20
2012,08,03,00,55,13.10
2012,08,03,00,56,13.10
2012,08,03,00,57,13.10
2012,08,03,00,58,13.10
2012,08,03,00,59,13.00
2012,08,03,01,00,13.00
2012,08,03,01,01,13.00
2012,08,03,01,02,13.00
2012,08,03,01,03,13.00
2012,08,03,01,04,12.90
2012,08,03,01,05,12.90
2012,08,03,01,06,12.90
2012,08,03,01,07,12.90
2012,08,03,01,08,12.80
2012,08,03,01,09,12.80
2012,08,03,01,10,12.80
2012,08,03,01,11,12.80
2012,08,03,01,12,12.80
2012,08,03,01,13,12.80
2012,08,03,01,14,12.70
2012,08,03,01,15,12.70
2012,08,03,01,16,12.70
2012,08,03,01,17,12.70
2012,08,03,01,18,12.60
2012,08,03,01,19,12.60
2012,08,03,01,20,12.60
2012,08,03,01,21,12.60
2012,08,03,01,22,12.60
2012,08,03,01,23,12.60
2012,08,03,01,24,12.60
2012,08,03,01,25,12.60
2012,08,03,01,26,12.60
2012,08,03,01,27,12.60
2012,08,03,01,28,12.60
2012,08,03,01,29,12.60
2012,08,03,01,30,12.60
2012,08,03,01,31,12.60
2012,08,03,01,32,12.60
2012,08,03,01,33,12.60
2012,08,03,01,34,12.60
2012,08,03,01,35,12.60
2012,08,03,01,36,12.50
2012,08,03,01,37,12.50
2012,08,03,01,38,12.50
2012,08,03,01,39,12.50
2012,08,03,01,40,12.50
2012,08,03,01,41,12.50
2012,08,03,01,42,12.50
2012,08,03,01,43,12.50
2012,08,03,01,44,12.50
2012,08,03,01,45,12.40
2012,08,03,01,46,12.40
2012,08,03,01,47,12.40
2012,08,03,01,48,12.40
2012,08,03,01,49,12.40
2012,08,03,01,50,12.40
2012,08,03,01,51,12.40
2012,08,03,01,52,12.40
2012,08,03,01,53,12.40
2012,08,03,01,54,12.40
2012,08,03,01,55,12.40
2012,08,03,01,56,12.40
2012,08,03,01,57,12.40
2012,08,03,01,58,12.40
2012,08,03,01,59,12.40
2012,08,03,02,00,12.40
2012,08,03,02,01,12.40
2012,08,03,02,02,12.40
2012,08,03,02,03,12.40
2012,08,03,02,04,12.40
2012,08,03,02,05,12.40
2012,08,03,02,06,12.40
2012,08,03,02,07,12.30
2012,08,03,02,08,12.30
2012,08,03,02,09,12.30
2012,08,03,02,10,12.40
2012,08,03,02,11,12.40
2012,08,03,02,12,12.40
2012,08,03,02,13,12.40
2012,08,03,02,14,12.30
2012,08,03,02,15,12.30
2012,08,03,02,16,12.30
2012,08,03,02,17,12.30
2012,08,03,02,18,12.30
2012,08,03,02,19,12.30
2012,08,03,02,20,12.30
2012,08,03,02,21,12.30
2012,08,03,02,22,12.30
2012,08,03,02,23,12.30
2012,08,03,02,24,12.30
2012,08,03,02,25,12.30
2012,08,03,02,26,12.30
2012,08,03,02,27,12.20
2012,08,03,02,28,12.20
2012,08,03,02,29,12.20
2012,08,03,02,30,12.20
2012,08,03,02,31,12.20
2012,08,03,02,32,12.20
2012,08,03,02,33,12.20
2012,08,03,02,34,12.10
2012,08,03,02,35,12.10
2012,08,03,02,36,12.10
2012,08,03,02,37,12.10
2012,08,03,02,38,12.10
2012,08,03,02,39,12.10
2012,08,03,02,40,12.10
2012,08,03,02,41,12.10
2012,08,03,02,42,12.10
2012,08,03,02,43,12.10
2012,08,03,02,44,12.10
2012,08,03,02,45,12.10
2012,08,03,02,46,12.10
2012,08,03,02,47,12.10
2012,08,03,02,48,12.00
2012,08,03,02,49,12.00
2012,08,03,02,50,12.00
2012,08,03,02,51,12.00
2012,08,03,02,52,12.00
2012,08,03,02,53,12.00
2012,08,03,02,54,12.00
2012,08,03,02,55,12.00
2012,08,03,02,56,12.00
2012,08,03,02,57,12.00
2012,08,03,02,58,12.00
2012,08,03,02,59,12.00
2012,08,03,03,00,12.00
2012,08,03,03,01,12.10
2012,08,03,03,02,12.10
2012,08,03,03,03,12.10
2012,08,03,03,04,12.00
2012,08,03,03,05,12.00
2012,08,03,03,06,12.00
2012,08,03,03,07,12.00
2012,08,03,03,08,12.00
2012,08,03,03,09,12.00
2012,08,03,03,10,12.00
2012,08,03,03,11,12.00
2012,08,03,03,12,12.00
2012,08,03,03,13,11.90
2012,08,03,03,14,11.90
2012,08,03,03,15,11.90
2012,08,03,03,16,11.90
2012,08,03,03,17,11.80
2012,08,03,03,18,11.80
2012,08,03,03,19,11.80
2012,08,03,03,20,11.80
2012,08,03,03,21,11.80
2012,08,03,03,22,11.80
2012,08,03,03,23,11.80
2012,08,03,03,24,11.80
2012,08,03,03,25,11.80
2012,08,03,03,26,11.80
2012,08,03,03,27,11.80
2012,08,03,03,28,11.70
2012,08,03,03,29,11.70
2012,08,03,03,30,11.70
2012,08,03,03,31,11.70
2012,08,03,03,32,11.70
2012,08,03,03,33,11.70
2012,08,03,03,34,11.70
2012,08,03,03,35,11.70
2012,08,03,03,36,11.60
2012,08,03,03,37,11.60
2012,08,03,03,38,11.60
2012,08,03,03,39,11.60
2012,08,03,03,40,11.70
2012,08,03,03,41,11.70
2012,08,03,03,42,11.70
2012,08,03,03,43,11.70
2012,08,03,03,44,11.70
2012,08,03,03,45,11.60
2012,08,03,03,46,11.60
2012,08,03,03,47,11.60
2012,08,03,03,48,11.60
2012,08,03,03,49,11.60
2012,08,03,03,50,11.60
2012,08,03,03,51,11.60
2012,08,03,03,52,11.60
2012,08,03,03,53,11.60
2012,08,03,03,54,11.60
2012,08,03,03,55,11.60
2012,08,03,03,56,11.60
2012,08,03,03,57,11.60
2012,08,03,03,58,11.60
2012,08,03,03,59,11.60
2012,08,03,04,00,11.60
2012,08,03,04,01,11.60
2012,08,03,04,02,11.60
2012,08,03,04,03,11.60
2012,08,03,04,04,11.60
2012,08,03,04,05,11.60
2012,08,03,04,06,11.60
2012,08,03,04,07,11.60
2012,08,03,04,08,11.60
2012,08,03,04,09,11.40
2012,08,03,04,10,11.40
2012,08,03,04,11,11.40
2012,08,03,04,12,11.40
2012,08,03,04,13,11.40
2012,08,03,04,14,11.40
2012,08,03,04,15,11.40
2012,08,03,04,16,11.40
2012,08,03,04,17,11.40
2012,08,03,04,18,11.40
2012,08,03,04,19,11.40
2012,08,03,04,20,11.40
2012,08,03,04,21,11.40
2012,08,03,04,22,11.40
2012,08,03,04,23,11.40
2012,08,03,04,24,11.40
2012,08,03,04,25,11.40
2012,08,03,04,26,11.40
2012,08,03,04,27,11.40
2012,08,03,04,28,11.40
2012,08,03,04,29,11.30
2012,08,03,04,30,11.30
2012,08,03,04,31,11.30
2012,08,03,04,32,11.30
2012,08,03,04,33,11.30
2012,08,03,04,34,11.30
2012,08,03,04,35,11.30
2012,08,03,04,36,11.40
2012,08,03,04,37,11.40
2012,08,03,04,38,11.40
2012,08,03,04,39,11.40
2012,08,03,04,40,11.40
2012,08,03,04,41,11.40
2012,08,03,04,42,11.40
2012,08,03,04,43,11.40
2012,08,03,04,44,11.40
2012,08,03,04,45,11.40
2012,08,03,04,46,11.40
2012,08,03,04,47,11.30
2012,08,03,04,48,11.30
2012,08,03,04,49,11.30
2012,08,03,04,50,11.30
2012,08,03,04,51,11.30
2012,08,03,04,52,11.30
2012,08,03,04,53,11.30
2012,08,03,04,54,11.30
2012,08,03,04,55,11.30
2012,08,03,04,56,11.40
2012,08,03,04,57,11.40
2012,08,03,04,58,11.40
2012,08,03,04,59,11.40
2012,08,03,05,00,11.40
2012,08,03,05,01,11.40
2012,08,03,05,02,11.40
2012,08,03,05,03,11.40
2012,08,03,05,04,11.40
2012,08,03,05,05,11.40
2012,08,03,05,06,11.40
2012,08,03,05,07,11.30
2012,08,03,05,08,11.30
2012,08,03,05,09,11.30
2012,08,03,05,10,11.30
2012,08,03,05,11,11.30
2012,08,03,05,12,11.30
2012,08,03,05,13,11.30
2012,08,03,05,14,11.20
2012,08,03,05,15,11.20
2012,08,03,05,16,11.20
2012,08,03,05,17,11.20
2012,08,03,05,18,11.10
2012,08,03,05,19,11.10
2012,08,03,05,20,11.10
2012,08,03,05,21,11.10
2012,08,03,05,22,11.10
2012,08,03,05,23,11.10
2012,08,03,05,24,11.10
2012,08,03,05,25,11.10
2012,08,03,05,26,11.10
2012,08,03,05,27,11.10
2012,08,03,05,28,11.00
2012,08,03,05,29,10.90
2012,08,03,05,30,10.90
2012,08,03,05,31,11.00
2012,08,03,05,32,11.00
2012,08,03,05,33,10.90
2012,08,03,05,34,10.90
2012,08,03,05,35,11.00
2012,08,03,05,36,11.10
2012,08,03,05,37,11.10
2012,08,03,05,38,11.10
2012,08,03,05,39,11.10
2012,08,03,05,40,11.10
2012,08,03,05,41,11.10
2012,08,03,05,42,11.10
2012,08,03,05,43,11.10
2012,08,03,05,44,11.10
2012,08,03,05,45,11.10
2012,08,03,05,46,11.10
2012,08,03,05,47,11.10
2012,08,03,05,48,11.10
2012,08,03,05,49,11.10
2012,08,03,05,50,11.10
2012,08,03,05,51,11.10
2012,08,03,05,52,11.10
2012,08,03,05,53,11.10
2012,08,03,05,54,10.90
2012,08,03,05,55,10.90
2012,08,03,05,56,11.00
2012,08,03,05,57,11.10
2012,08,03,05,58,11.10
2012,08,03,05,59,11.10
2012,08,03,06,00,11.10
2012,08,03,06,01,11.10
2012,08,03,06,02,11.10
2012,08,03,06,03,11.10
2012,08,03,06,04,11.10
2012,08,03,06,05,11.10
2012,08,03,06,06,11.10
2012,08,03,06,07,11.20
2012,08,03,06,08,11.20
2012,08,03,06,09,11.30
2012,08,03,06,10,11.30
2012,08,03,06,11,11.30
2012,08,03,06,12,11.30
2012,08,03,06,13,11.30
2012,08,03,06,14,11.30
2012,08,03,06,15,11.40
2012,08,03,06,16,11.40
2012,08,03,06,17,11.40
2012,08,03,06,18,11.40
2012,08,03,06,19,11.40
2012,08,03,06,20,11.40
2012,08,03,06,21,11.40
2012,08,03,06,22,11.50
2012,08,03,06,23,11.60
2012,08,03,06,24,11.60
2012,08,03,06,25,11.60
2012,08,03,06,26,11.60
2012,08,03,06,27,11.70
2012,08,03,06,28,11.70
2012,08,03,06,29,11.80
2012,08,03,06,30,11.80
2012,08,03,06,31,11.80
2012,08,03,06,32,11.80
2012,08,03,06,33,11.80
2012,08,03,06,34,11.90
2012,08,03,06,35,11.90
2012,08,03,06,36,12.00
2012,08,03,06,37,12.00
2012,08,03,06,38,12.10
2012,08,03,06,39,12.10
2012,08,03,06,40,12.20
2012,08,03,06,41,12.30
2012,08,03,06,42,12.30
2012,08,03,06,43,12.40
2012,08,03,06,44,12.50
2012,08,03,06,45,12.50
2012,08,03,06,46,12.60
2012,08,03,06,47,12.60
2012,08,03,06,48,12.70
2012,08,03,06,49,12.80
2012,08,03,06,50,12.80
2012,08,03,06,51,12.80
2012,08,03,06,52,12.90
2012,08,03,06,53,12.90
2012,08,03,06,54,13.00
2012,08,03,06,55,13.00
2012,08,03,06,56,13.00
2012,08,03,06,57,13.10
2012,08,03,06,58,13.10
2012,08,03,06,59,13.20
2012,08,03,07,00,13.20
2012,08,03,07,01,13.30
2012,08,03,07,02,13.30
2012,08,03,07,03,13.30
2012,08,03,07,04,13.40
2012,08,03,07,05,13.40
2012,08,03,07,06,13.50
2012,08,03,07,07,13.60
2012,08,03,07,08,13.70
2012,08,03,07,09,13.80
2012,08,03,07,10,13.90
2012,08,03,07,11,14.00
2012,08,03,07,12,14.10
2012,08,03,07,13,14.20
2012,08,03,07,14,14.20
2012,08,03,07,15,14.30
2012,08,03,07,16,14.30
2012,08,03,07,17,14.40
2012,08,03,07,18,14.50
2012,08,03,07,19,14.60
2012,08,03,07,20,14.70
2012,08,03,07,21,14.80
2012,08,03,07,22,14.80
2012,08,03,07,23,14.90
2012,08,03,07,24,15.00
2012,08,03,07,25,15.10
2012,08,03,07,26,15.20
2012,08,03,07,27,15.30
2012,08,03,07,28,15.30
2012,08,03,07,29,15.40
2012,08,03,07,30,15.50
2012,08,03,07,31,15.50
2012,08,03,07,32,15.60
2012,08,03,07,33,15.70
2012,08,03,07,34,15.80
2012,08,03,07,35,15.90
2012,08,03,07,36,16.00
2012,08,03,07,37,16.20
2012,08,03,07,38,16.20
2012,08,03,07,39,16.30
2012,08,03,07,40,16.40
2012,08,03,07,41,16.40
2012,08,03,07,42,16.40
2012,08,03,07,43,16.60
2012,08,03,07,44,16.70
2012,08,03,07,45,16.80
2012,08,03,07,46,16.90
2012,08,03,07,47,17.10
2012,08,03,07,48,17.30
2012,08,03,07,49,17.40
2012,08,03,07,50,17.50
2012,08,03,07,51,17.70
2012,08,03,07,52,17.70
2012,08,03,07,53,17.80
2012,08,03,07,54,17.90
2012,08,03,07,55,17.90
2012,08,03,07,56,18.00
2012,08,03,07,57,18.10
2012,08,03,07,58,18.10
2012,08,03,07,59,18.20
2012,08,03,08,00,18.20
2012,08,03,08,01,18.20
2012,08,03,08,02,18.20
2012,08,03,08,03,18.30
2012,08,03,08,04,18.30
2012,08,03,08,05,18.30
2012,08,03,08,06,18.40
2012,08,03,08,07,18.40
2012,08,03,08,08,18.50
2012,08,03,08,09,18.60
2012,08,03,08,10,18.60
2012,08,03,08,11,18.70
2012,08,03,08,12,18.70
2012,08,03,08,13,18.80
2012,08,03,08,14,18.90
2012,08,03,08,15,18.90
2012,08,03,08,16,18.90
2012,08,03,08,17,18.90
2012,08,03,08,18,18.90
2012,08,03,08,19,18.90
2012,08,03,08,20,19.00
2012,08,03,08,21,19.10
2012,08,03,08,22,19.20
2012,08,03,08,23,19.30
2012,08,03,08,24,19.30
2012,08,03,08,25,19.40
2012,08,03,08,26,19.50
2012,08,03,08,27,19.60
2012,08,03,08,28,19.60
2012,08,03,08,29,19.60
2012,08,03,08,30,19.50
2012,08,03,08,31,19.50
2012,08,03,08,32,19.60
2012,08,03,08,33,19.60
2012,08,03,08,34,19.50
2012,08,03,08,35,19.40
2012,08,03,08,36,19.30
2012,08,03,08,37,19.30
2012,08,03,08,38,19.30
2012,08,03,08,39,19.40
2012,08,03,08,40,19.50
2012,08,03,08,41,19.50
2012,08,03,08,42,19.60
2012,08,03,08,43,19.70
2012,08,03,08,44,19.90
2012,08,03,08,45,19.90
2012,08,03,08,46,19.90
2012,08,03,08,47,19.90
2012,08,03,08,48,19.90
2012,08,03,08,49,19.90
2012,08,03,08,50,19.90
2012,08,03,08,51,19.90
2012,08,03,08,52,19.90
2012,08,03,08,53,19.90
2012,08,03,08,54,19.90
2012,08,03,08,55,19.90
2012,08,03,08,56,20.00
2012,08,03,08,57,20.10
2012,08,03,08,58,20.00
2012,08,03,08,59,20.10
2012,08,03,09,00,20.20
2012,08,03,09,01,20.30
2012,08,03,09,02,20.40
2012,08,03,09,03,20.30
2012,08,03,09,04,20.20
2012,08,03,09,05,20.20
2012,08,03,09,06,20.20
2012,08,03,09,07,20.20
2012,08,03,09,08,20.30
2012,08,03,09,09,20.40
2012,08,03,09,10,20.40
2012,08,03,09,11,20.50
2012,08,03,09,12,20.50
2012,08,03,09,13,20.60
2012,08,03,09,14,20.70
2012,08,03,09,15,20.70
2012,08,03,09,16,20.70
2012,08,03,09,17,20.70
2012,08,03,09,18,20.60
2012,08,03,09,19,20.60
2012,08,03,09,20,20.70
2012,08,03,09,21,20.80
2012,08,03,09,22,20.90
2012,08,03,09,23,21.00
2012,08,03,09,24,21.00
2012,08,03,09,25,21.00
2012,08,03,09,26,20.90
2012,08,03,09,27,20.90
2012,08,03,09,28,20.90
2012,08,03,09,29,20.90
2012,08,03,09,30,21.00
2012,08,03,09,31,21.00
2012,08,03,09,32,21.10
2012,08,03,09,33,21.20
2012,08,03,09,34,21.20
2012,08,03,09,35,21.30
2012,08,03,09,36,21.30
2012,08,03,09,37,21.30
2012,08,03,09,38,21.30
2012,08,03,09,39,21.30
2012,08,03,09,40,21.30
2012,08,03,09,41,21.40
2012,08,03,09,42,21.40
2012,08,03,09,43,21.50
2012,08,03,09,44,21.60
2012,08,03,09,45,21.70
2012,08,03,09,46,21.70
2012,08,03,09,47,21.60
2012,08,03,09,48,21.60
2012,08,03,09,49,21.70
2012,08,03,09,50,21.80
2012,08,03,09,51,21.70
2012,08,03,09,52,21.70
2012,08,03,09,53,21.60
2012,08,03,09,54,21.60
2012,08,03,09,55,21.60
2012,08,03,09,56,21.60
2012,08,03,09,57,21.60
2012,08,03,09,58,21.70
2012,08,03,09,59,21.70
2012,08,03,10,00,21.70
2012,08,03,10,01,21.60
2012,08,03,10,02,21.50
2012,08,03,10,03,21.40
2012,08,03,10,04,21.40
2012,08,03,10,05,21.40
2012,08,03,10,06,21.40
2012,08,03,10,07,21.40
2012,08,03,10,08,21.50
2012,08,03,10,09,21.60
2012,08,03,10,10,21.60
2012,08,03,10,11,21.70
2012,08,03,10,12,21.70
2012,08,03,10,13,21.70
2012,08,03,10,14,21.60
2012,08,03,10,15,21.60
2012,08,03,10,16,21.60
2012,08,03,10,17,21.60
2012,08,03,10,18,21.50
2012,08,03,10,19,21.50
2012,08,03,10,20,21.60
2012,08,03,10,21,21.60
2012,08,03,10,22,21.70
2012,08,03,10,23,21.70
2012,08,03,10,24,21.80
2012,08,03,10,25,22.00
2012,08,03,10,26,22.00
2012,08,03,10,27,22.00
2012,08,03,10,28,22.00
2012,08,03,10,29,22.00
2012,08,03,10,30,21.80
2012,08,03,10,31,21.60
2012,08,03,10,32,21.60
2012,08,03,10,33,21.60
2012,08,03,10,34,21.60
2012,08,03,10,35,21.60
2012,08,03,10,36,21.60
2012,08,03,10,37,21.60
2012,08,03,10,38,21.70
2012,08,03,10,39,21.90
2012,08,03,10,40,22.10
2012,08,03,10,41,22.20
2012,08,03,10,42,22.30
2012,08,03,10,43,22.50
2012,08,03,10,44,22.60
2012,08,03,10,45,22.70
2012,08,03,10,46,22.80
2012,08,03,10,47,22.80
2012,08,03,10,48,22.70
2012,08,03,10,49,22.50
2012,08,03,10,50,22.30
2012,08,03,10,51,22.30
2012,08,03,10,52,22.30
2012,08,03,10,53,22.20
2012,08,03,10,54,22.30
2012,08,03,10,55,22.50
2012,08,03,10,56,22.70
2012,08,03,10,57,22.90
2012,08,03,10,58,22.80
2012,08,03,10,59,22.80
2012,08,03,11,00,22.70
2012,08,03,11,01,22.70
2012,08,03,11,02,22.70
2012,08,03,11,03,22.60
2012,08,03,11,04,22.60
2012,08,03,11,05,22.70
2012,08,03,11,06,22.80
2012,08,03,11,07,22.90
2012,08,03,11,08,23.10
2012,08,03,11,09,23.00
2012,08,03,11,10,22.90
2012,08,03,11,11,22.90
2012,08,03,11,12,23.10
2012,08,03,11,13,23.20
2012,08,03,11,14,23.40
2012,08,03,11,15,23.40
2012,08,03,11,16,23.40
2012,08,03,11,17,23.40
2012,08,03,11,18,23.30
2012,08,03,11,19,23.20
2012,08,03,11,20,23.20
2012,08,03,11,21,23.30
2012,08,03,11,22,23.30
2012,08,03,11,23,23.40
2012,08,03,11,24,23.40
2012,08,03,11,25,23.30
2012,08,03,11,26,23.30
2012,08,03,11,27,23.30
2012,08,03,11,28,23.50
2012,08,03,11,29,23.60
2012,08,03,11,30,23.80
2012,08,03,11,31,23.70
2012,08,03,11,32,23.60
2012,08,03,11,33,23.70
2012,08,03,11,34,23.80
2012,08,03,11,35,23.90
2012,08,03,11,36,24.10
2012,08,03,11,37,24.10
2012,08,03,11,38,24.10
2012,08,03,11,39,24.10
2012,08,03,11,40,23.90
2012,08,03,11,41,23.80
2012,08,03,11,42,23.70
2012,08,03,11,43,23.70
2012,08,03,11,44,23.70
2012,08,03,11,45,23.80
2012,08,03,11,46,24.00
2012,08,03,11,47,24.10
2012,08,03,11,48,24.20
2012,08,03,11,49,24.20
2012,08,03,11,50,24.10
2012,08,03,11,51,23.90
2012,08,03,11,52,23.80
2012,08,03,11,53,23.80
2012,08,03,11,54,23.90
2012,08,03,11,55,24.00
2012,08,03,11,56,24.20
2012,08,03,11,57,24.20
2012,08,03,11,58,24.20
2012,08,03,11,59,24.20
2012,08,03,12,00,24.20
2012,08,03,12,01,24.10
2012,08,03,12,02,24.20
2012,08,03,12,03,24.30
2012,08,03,12,04,24.50
2012,08,03,12,05,24.60
2012,08,03,12,06,24.50
2012,08,03,12,07,24.40
2012,08,03,12,08,24.30
2012,08,03,12,09,24.50
2012,08,03,12,10,24.80
2012,08,03,12,11,24.90
2012,08,03,12,12,25.00
2012,08,03,12,13,24.90
2012,08,03,12,14,24.80
2012,08,03,12,15,24.80
2012,08,03,12,16,24.80
2012,08,03,12,17,24.70
2012,08,03,12,18,24.60
2012,08,03,12,19,24.60
2012,08,03,12,20,24.60
2012,08,03,12,21,24.70
2012,08,03,12,22,24.80
2012,08,03,12,23,24.90
2012,08,03,12,24,25.10
2012,08,03,12,25,25.20
2012,08,03,12,26,25.20
2012,08,03,12,27,25.20
2012,08,03,12,28,25.20
2012,08,03,12,29,25.10
2012,08,03,12,30,24.90
2012,08,03,12,31,25.00
2012,08,03,12,32,25.10
2012,08,03,12,33,25.00
2012,08,03,12,34,24.90
2012,08,03,12,35,24.90
2012,08,03,12,36,25.00
2012,08,03,12,37,25.20
2012,08,03,12,38,25.30
2012,08,03,12,39,25.40
2012,08,03,12,40,25.50
2012,08,03,12,41,25.40
2012,08,03,12,42,25.50
2012,08,03,12,43,25.40
2012,08,03,12,44,25.30
2012,08,03,12,45,25.20
2012,08,03,12,46,25.30
2012,08,03,12,47,25.40
2012,08,03,12,48,25.40
2012,08,03,12,49,25.40
2012,08,03,12,50,25.40
2012,08,03,12,51,25.50
2012,08,03,12,52,25.60
2012,08,03,12,53,25.40
2012,08,03,12,54,25.40
2012,08,03,12,55,25.30
2012,08,03,12,56,25.40
2012,08,03,12,57,25.60
2012,08,03,12,58,25.60
2012,08,03,12,59,25.50
2012,08,03,13,00,25.40
2012,08,03,13,01,25.30
2012,08,03,13,02,25.40
2012,08,03,13,03,25.50
2012,08,03,13,04,25.50
2012,08,03,13,05,25.50
2012,08,03,13,06,25.70
2012,08,03,13,07,25.70
2012,08,03,13,08,25.70
2012,08,03,13,09,25.80
2012,08,03,13,10,25.80
2012,08,03,13,11,25.90
2012,08,03,13,12,25.90
2012,08,03,13,13,25.90
2012,08,03,13,14,25.90
2012,08,03,13,15,25.90
2012,08,03,13,16,25.80
2012,08,03,13,17,25.80
2012,08,03,13,18,25.90
2012,08,03,13,19,26.10
2012,08,03,13,20,26.20
2012,08,03,13,21,26.30
2012,08,03,13,22,26.30
2012,08,03,13,23,26.20
2012,08,03,13,24,26.20
2012,08,03,13,25,26.30
2012,08,03,13,26,26.30
2012,08,03,13,27,26.30
2012,08,03,13,28,26.40
2012,08,03,13,29,26.30
2012,08,03,13,30,26.30
2012,08,03,13,31,26.30
2012,08,03,13,32,26.20
2012,08,03,13,33,26.10
2012,08,03,13,34,26.10
2012,08,03,13,35,25.90
2012,08,03,13,36,25.80
2012,08,03,13,37,25.40
2012,08,03,13,38,24.90
2012,08,03,13,39,24.50
2012,08,03,13,40,24.20
2012,08,03,13,41,23.80
2012,08,03,13,42,23.50
2012,08,03,13,43,23.20
2012,08,03,13,44,22.90
2012,08,03,13,45,22.80
2012,08,03,13,46,22.70
2012,08,03,13,47,22.60
2012,08,03,13,48,22.60
2012,08,03,13,49,22.50
2012,08,03,13,50,22.30
2012,08,03,13,51,22.20
2012,08,03,13,52,22.20
2012,08,03,13,53,22.30
2012,08,03,13,54,22.20
2012,08,03,13,55,22.20
2012,08,03,13,56,22.10
2012,08,03,13,57,22.10
2012,08,03,13,58,22.10
2012,08,03,13,59,22.20
2012,08,03,14,00,22.20
2012,08,03,14,01,22.20
2012,08,03,14,02,22.30
2012,08,03,14,03,22.20
2012,08,03,14,04,22.10
2012,08,03,14,05,22.20
2012,08,03,14,06,22.20
2012,08,03,14,07,22.30
2012,08,03,14,08,22.50
2012,08,03,14,09,22.70
2012,08,03,14,10,22.80
2012,08,03,14,11,22.90
2012,08,03,14,12,22.90
2012,08,03,14,13,22.90
2012,08,03,14,14,23.10
2012,08,03,14,15,23.20
2012,08,03,14,16,23.30
2012,08,03,14,17,23.20
2012,08,03,14,18,23.20
2012,08,03,14,19,23.10
2012,08,03,14,20,23.10
2012,08,03,14,21,22.90
2012,08,03,14,22,22.90
2012,08,03,14,23,22.80
2012,08,03,14,24,22.70
2012,08,03,14,25,22.70
2012,08,03,14,26,22.80
2012,08,03,14,27,22.90
2012,08,03,14,28,22.90
2012,08,03,14,29,22.90
2012,08,03,14,30,22.90
2012,08,03,14,31,23.10
2012,08,03,14,32,23.20
2012,08,03,14,33,23.30
2012,08,03,14,34,23.30
2012,08,03,14,35,23.20
2012,08,03,14,36,23.10
2012,08,03,14,37,23.10
2012,08,03,14,38,23.10
2012,08,03,14,39,23.10
2012,08,03,14,40,23.10
2012,08,03,14,41,23.10
2012,08,03,14,42,23.20
2012,08,03,14,43,23.20
2012,08,03,14,44,23.20
2012,08,03,14,45,23.10
2012,08,03,14,46,23.00
2012,08,03,14,47,22.90
2012,08,03,14,48,22.90
2012,08,03,14,49,22.80
2012,08,03,14,50,22.80
2012,08,03,14,51,22.90
2012,08,03,14,52,22.90
2012,08,03,14,53,22.90
2012,08,03,14,54,22.90
2012,08,03,14,55,22.90
2012,08,03,14,56,22.90
2012,08,03,14,57,23.00
2012,08,03,14,58,23.10
2012,08,03,14,59,23.20
2012,08,03,15,00,23.30
2012,08,03,15,01,23.30
2012,08,03,15,02,23.40
2012,08,03,15,03,23.50
2012,08,03,15,04,23.60
2012,08,03,15,05,23.70
2012,08,03,15,06,23.70
2012,08,03,15,07,23.70
2012,08,03,15,08,23.80
2012,08,03,15,09,23.90
2012,08,03,15,10,24.10
2012,08,03,15,11,24.20
2012,08,03,15,12,24.30
2012,08,03,15,13,24.50
2012,08,03,15,14,24.70
2012,08,03,15,15,24.70
2012,08,03,15,16,24.70
2012,08,03,15,17,24.60
2012,08,03,15,18,24.60
2012,08,03,15,19,24.60
2012,08,03,15,20,24.60
2012,08,03,15,21,24.60
2012,08,03,15,22,24.60
2012,08,03,15,23,24.70
2012,08,03,15,24,24.70
2012,08,03,15,25,24.50
2012,08,03,15,26,24.50
2012,08,03,15,27,24.50
2012,08,03,15,28,24.50
2012,08,03,15,29,24.60
2012,08,03,15,30,24.50
2012,08,03,15,31,24.50
2012,08,03,15,32,24.40
2012,08,03,15,33,24.10
2012,08,03,15,34,23.90
2012,08,03,15,35,23.80
2012,08,03,15,36,23.70
2012,08,03,15,37,23.70
2012,08,03,15,38,23.70
2012,08,03,15,39,23.70
2012,08,03,15,40,23.60
2012,08,03,15,41,23.60
2012,08,03,15,42,23.70
2012,08,03,15,43,23.70
2012,08,03,15,44,23.70
2012,08,03,15,45,23.70
2012,08,03,15,46,23.70
2012,08,03,15,47,23.70
2012,08,03,15,48,23.70
2012,08,03,15,49,23.70
2012,08,03,15,50,23.70
2012,08,03,15,51,23.70
2012,08,03,15,52,23.80
2012,08,03,15,53,23.90
2012,08,03,15,54,24.00
2012,08,03,15,55,24.10
2012,08,03,15,56,24.20
2012,08,03,15,57,24.20
2012,08,03,15,58,24.30
2012,08,03,15,59,24.30
2012,08,03,16,00,24.40
2012,08,03,16,01,24.40
2012,08,03,16,02,24.50
2012,08,03,16,03,24.40
2012,08,03,16,04,24.40
2012,08,03,16,05,24.50
2012,08,03,16,06,24.50
2012,08,03,16,07,24.40
2012,08,03,16,08,24.40
2012,08,03,16,09,24.50
2012,08,03,16,10,24.50
2012,08,03,16,11,24.50
2012,08,03,16,12,24.40
2012,08,03,16,13,24.40
2012,08,03,16,14,24.40
2012,08,03,16,15,24.30
2012,08,03,16,16,24.20
2012,08,03,16,17,24.20
2012,08,03,16,18,24.20
2012,08,03,16,19,24.20
2012,08,03,16,20,24.20
2012,08,03,16,21,24.30
2012,08,03,16,22,24.30
2012,08,03,16,23,24.20
2012,08,03,16,24,24.20
2012,08,03,16,25,24.10
2012,08,03,16,26,24.10
2012,08,03,16,27,24.20
2012,08,03,16,28,24.20
2012,08,03,16,29,24.20
2012,08,03,16,30,24.10
2012,08,03,16,31,24.10
2012,08,03,16,32,24.10
2012,08,03,16,33,24.10
2012,08,03,16,34,24.10
2012,08,03,16,35,24.10
2012,08,03,16,36,24.10
2012,08,03,16,37,24.10
2012,08,03,16,38,24.10
2012,08,03,16,39,24.10
2012,08,03,16,40,24.10
2012,08,03,16,41,24.10
2012,08,03,16,42,24.10
2012,08,03,16,43,24.10
2012,08,03,16,44,24.20
2012,08,03,16,45,24.30
2012,08,03,16,46,24.50
2012,08,03,16,47,24.60
2012,08,03,16,48,24.60
2012,08,03,16,49,24.60
2012,08,03,16,50,24.60
2012,08,03,16,51,24.60
2012,08,03,16,52,24.60
2012,08,03,16,53,24.50
2012,08,03,16,54,24.40
2012,08,03,16,55,24.40
2012,08,03,16,56,24.20
2012,08,03,16,57,24.20
2012,08,03,16,58,24.30
2012,08,03,16,59,24.40
2012,08,03,17,00,24.40
2012,08,03,17,01,24.40
2012,08,03,17,02,24.40
2012,08,03,17,03,24.40
2012,08,03,17,04,24.40
2012,08,03,17,05,24.50
2012,08,03,17,06,24.50
2012,08,03,17,07,24.60
2012,08,03,17,08,24.70
2012,08,03,17,09,24.70
2012,08,03,17,10,24.80
2012,08,03,17,11,24.90
2012,08,03,17,12,24.90
2012,08,03,17,13,25.00
2012,08,03,17,14,25.20
2012,08,03,17,15,25.30
2012,08,03,17,16,25.40
2012,08,03,17,17,25.50
2012,08,03,17,18,25.50
2012,08,03,17,19,25.50